Погода в Инге

Погода в Инге : погода сейчас, прогноз погоды и архив. Всё, что Вы хотите узнать о погоде в Инге!

Поиск расширенной информации на нашем сайте:

Другие новости

Новости СМИ2

Главная страница сайта

Новости сайта

03.07.2017

Напоминаем, что на нашем специализированном сайте Метеоцентр.Азия вы можете получить высокодетализированные автоматические прогнозы погоды по пунктам России, СНГ и мира в авиационном формате (включающие направление и скорость ветра, видимость, явления погоды, количество и форму облачности, нижнюю и верхнюю границу облачности).

Рекомендуем: инмор спб сайт

Погода в Инге - сегодня

Время (UTC), дата Ветер
(°,м/с) 
Видим.   Явления Облачность Т
(°С)
Тd
(°С)
f(%) Тe
(°С)
Pmin
(гПа)
dP
(гПа)
Po
(мм)
O2
(г/м3)
Тmin Tmax R s Состояние
почвы
12 09.12.17 340 (С) н/о  слаб. ливневой снег  10/10 600 м кучево-дожд. 
[Cb cap]
-9.9 -12 85 -12  1037.8  1.1  726  305    -6.9     
15 09.12.17 360 (С) н/о  ливневой снег  10/10 600 м кучево-дожд. 
[Cb cap]
-10.6 -11.9 90 -12  1037.4  -0.6  725  305           
18 09.12.17 050 (СВ) н/о  слаб. ливневой снег  10/8 600 м кучево-дожд., верхняя 
[Cb cap|Cs]
-13 -14.3 90 -15  1037  -1.1  725  308           
21 09.12.17 020 (С) н/о  слаб. снег{ливн. осадки}  10/0 верхняя 
[Cs]
-13.8 -15.8 85 -16  1036.7  -0.4  724  309           
00 10.12.17 050 (СВ) н/о  слаб. снег{ливн. осадки}  10/0 средняя, верхняя 
[Ac As|Cs]
-15.6 -17.5 85 -18  1036.9  -0.3  724  311  -15.7    30  равномерный
сухой снег
100% 
03 10.12.17 050 (СВ) 4000 м  слаб. снег  10/0 средняя, верхняя 
[Ac trans|Cs]
-16.6 -18.5 85 -19  1038.3  725  312           
06 10.12.17 050 (СВ) 10 км  слаб. снег  10/0 верхняя 
[Cs]
-14.9 -18.3 75 -17  1038.4  0.5  725  310           
09 10.12.17 тихо ()   20000 м    3/0 верхняя 
[Ci fib]
-17.2 -20.6 75 -17  1039  725  313           
12 10.12.17 тихо ()   н/о    ясно 
-23.4 -25.3 84 -23  1041.7  0.7  726  321    -13.6  0.3     
15 10.12.17 тихо ()   н/о    ясно 
-26.1 -27.9 85 -26  1042.5  726  325           
18 10.12.17 тихо ()   н/о    ясно 
-28.8 -30.6 85 -29  1042.4  -0.9  725  328           
21 10.12.17 тихо ()   н/о    ясно 
-31.2 -33 84 -31  1041.6  -1.3  724  331           
00 11.12.17 тихо ()   н/о    ясно 
-31.5 -33.3 84 -32  1041  -0.8  723  331  -31.6      29  лёд 
03 11.12.17 тихо ()   20000 м    10/0 средняя, верхняя 
[Ac As|Ci sp]
-29.9 -33 74 -30  1040.1  -0.3  723  329  -32.1         
06 11.12.17 тихо ()   20000 м    10/0 верхняя 
[Cs]
-25.7 -29.6 70 -26  1037.7  -0.9  722  323           
09 11.12.17 тихо ()   20000 м    10/0 верхняя 
[Cs]
-25.9 -29.1 74 -26  1038  0.1  723  323           
12 11.12.17 тихо ()   н/о    10/0 верхняя 
[Ci fib]
-30 -33 75 -30  1039.9  0.6  723  329    -25       
15 11.12.17 тихо ()   н/о    4/0 верхняя 
[Ci fib]
-32.2 -35.3 74 -32  1064  723  332           
18 11.12.17 тихо ()   н/о    3/0 верхняя 
[Ci fib]
-33.9 -36.2 79 -34  1040.6  -0.6  723  334           
21 11.12.17 тихо ()   н/о    ясно 
-34.9 -37.7 75 -35  1040.3  -0.6  722  336           
00 12.12.17 тихо ()   н/о    10/0 верхняя 
[Cs]
-34.3 -37.1 76 -34  1039.2  -0.8  722  334  -35.6      29  равномерный
сухой снег
100% 
03 12.12.17 тихо ()   20000 м    10/0 верхняя 
[Cs]
-29.6 -33.3 70 -30  1036.1  -1.4  720  327           
06 12.12.17 тихо ()   20000 м    10/0 средняя, верхняя 
[Ac As|Cs]
-22.2 -28 59 -22  1031.3  -2.3  719  317           
09 12.12.17 тихо ()   20000 м    10/0 средняя 
[As op]
-21.4 -25.4 70 -21  1030.4  -0.7  718  316           
12 12.12.17 250 (З) н/о  слаб. снег  10/0 средняя 
[As op]
-19.7 -23 75 -22  1030.8  0.9  719  314    -19.7  0.0     
Время (UTC), дата Ветер
(°,м/с) 
Видим.   Явления Облачность Т
(°С)
Тd
(°С)
f(%) Тe
(°С)
Pmin
(гПа)
dP
(гПа)
Po
(мм)
O2
(г/м3)
Тmin Tmax R s Состояние
почвы

Для получения пояснительной информации подведите курсор к названию столбца.

ПОГОДА в Инге - архив

Всё, что Вы хотите узнать о погоде в Инге - удобно и подробно!

Выберите нужную дату (начиная с 1 января 2015* года) и нажмите кнопку "Найти".
Будут отображены архивные сводки погоды по пункту Инга, начиная с указанной даты.


Отображать данные в формате CSV (для использования в таблицах Excel)


Внимание! Наш архив погоды предназначен исключительно для личного некоммерческого использования в познавательных целях. Если Вам необходимы официальные справки о состоянии погоды (для производственных, юридических, коммерческих и т.п. целей), обращайтесь в органы Росгидромета.

*Примечание: данная дата относится к архиву по метеостанциям СССР (Россия, СНГ, Балтия).
Архив по метеостанциям Зарубежной Европы и Азии (кроме Китая) хранится 10 дней, по другим регионам земного шара (Китай, Африка, Америка, Австралия, Океания) - 1 день.

Инга - район местоположения метеостанции


Название, широта, долгота, высота метеостанции:
Инга 53°ш. 102°д. 543 м над ур. моря [Российская Федерация]

Дополнительная информация

В oтличие oт бoльшинства пoгoдных сайтoв мы публикуем пoдрoбную метеoинфoрмацию в детальнoм прoфессиoнальнoм фoрмате.

Характеристики температуры и влажнoсти вoздуха измеряются на высoте 2 м в тени вдали oт зданий и деревьев.
Скoрoсть ветра измеряется на высoте 10 м (на урoвне рoста челoвека скoрoсть ветра ниже в 1.5-2 раза). Если метеoстанция нахoдится в гoрoде или в лесу, тo скoрoсть ветра занижена на 2-4 м/с пo сравнению с oткрытым местoм. Скoрoсть ветра над акватoриями крупных рек и oзёр, а также на вершинах хoлмoв на 2-5 м/с выше, чем в oбычных услoвиях.
Атмoсфернoе давление в разных тoчках местнoсти мoжет значительнo oтличаться oт давления на метеoстанции, в зависимoсти oт услoвий рельефа (при пoдъёме на 10 м давление пoнижается примернo на 1 мм рт.ст.).